Location: Budapest
(47.4979°N, 19.0402°E)
Time: 17:53:58
(UTC+01:00)

Vanguard 1 Rocket - Visible Passes

Search period start: 14 December 2017 00:00
Search period end: 24 December 2017 00:00
Orbit: 656 x 4222 km, 34.3° (Epoch: 13 December)

Date Brightness Start Highest point End Pass type
(mag) Time Alt. Az. Time Alt. Az. Time Alt. Az.
14 Dec 10.0 17:47:35 10° SW 17:58:24 48° SSE 18:12:25 20° ESE visible
14 Dec 10.4 20:12:01 10° W 20:26:37 50° S 20:29:43 47° S visible
14 Dec 11.1 22:39:16 10° W 22:47:00 25° WSW 22:47:00 25° WSW visible
15 Dec 10.0 16:37:45 10° SW 16:46:39 39° SSE 17:02:36 10° E visible
15 Dec 10.2 19:01:04 10° WSW 19:13:33 51° S 19:22:36 35° SE visible
15 Dec 10.7 21:26:48 10° W 21:39:54 39° SW 21:39:54 39° SW visible
16 Dec 10.0 17:50:38 10° WSW 18:01:05 48° S 18:15:34 18° ESE visible
16 Dec 10.4 20:15:12 10° W 20:29:12 45° SSW 20:32:52 43° S visible
16 Dec 11.2 22:43:00 10° W 22:50:10 22° WSW 22:50:10 22° WSW visible
17 Dec 9.9 16:40:41 10° SW 16:49:19 41° SSE 17:05:02 10° E visible
17 Dec 10.2 19:04:14 10° WSW 19:16:14 48° S 19:25:54 31° SE visible
17 Dec 10.8 21:30:13 10° W 21:43:13 34° SW 21:43:13 34° SW visible
18 Dec 10.0 17:53:46 10° WSW 18:03:50 47° S 18:19:02 16° ESE visible
18 Dec 10.5 20:18:30 10° W 20:31:47 41° SSW 20:36:22 37° S visible
18 Dec 11.3 22:47:14 10° W 22:53:41 19° WSW 22:53:41 19° WSW visible
19 Dec 9.8 16:43:43 10° SW 16:52:04 42° SSE 17:07:25 10° ESE visible
19 Dec 10.2 19:07:29 10° WSW 19:18:58 44° S 19:29:36 27° SE visible
19 Dec 11.0 21:33:53 10° W 21:46:56 29° SSW 21:46:56 29° SSW visible
20 Dec 10.0 17:56:57 10° WSW 18:06:39 45° S 18:22:59 13° ESE visible
20 Dec 10.7 20:21:57 10° W 20:34:25 35° SSW 20:40:20 31° S visible
20 Dec 11.4 22:52:27 10° WSW 22:57:41 15° WSW 22:57:41 15° WSW visible
21 Dec 9.8 16:46:51 10° WSW 16:54:54 42° S 17:09:43 10° ESE visible
21 Dec 10.3 19:10:49 10° WSW 19:21:45 40° SSW 19:33:54 21° SE visible
21 Dec 11.1 21:37:58 10° WSW 21:49:52 23° SSW 21:51:16 23° SSW visible
22 Dec 10.0 18:00:14 10° WSW 18:09:31 42° S 18:26:20 10° SE visible
22 Dec 10.8 20:25:36 10° WSW 20:37:06 29° SSW 20:45:04 23° S visible
22 Dec 11.6 23:00:59 10° SW 23:02:28 10° SW 23:02:28 10° SW visible
23 Dec 9.8 16:50:03 10° WSW 16:57:48 41° S 17:11:57 10° ESE visible
23 Dec 10.5 19:14:17 10° WSW 19:24:34 34° SSW 19:39:08 14° SSE visible
23 Dec 11.3 21:42:46 10° WSW 21:52:25 17° SW 21:56:35 16° SSW visible
